Other Public Products
Issued by NWS Grand Forks, ND

Home | Current Version | Previous Version | Graphics & Text | Print | Product List | Glossary On
Versions: 1 2 3 4 5 6 7 8 9 10 11 12 13 14 15 16 17 18 19 20 21 22 23 24 25 26 27 28 29 30 31 32 33 34 35 36 37 38 39 40 41 42 43 44 45 46 47 48 49 50
000
FPUS83 KFGF 061231
OPUFGF
PRAIRIE TO PINES WEATHER ROUNDUP
NATIONAL WEATHER SERVICE EASTERN NORTH DAKOTA/GRAND FORKS ND
700 AM CDT FRI MAY 06 2016

 **SATELLITE DATA USED TO AUGMENT SKY COVER AT AUTOMATED STATIONS**
 *****  WEATHER ACROSS EASTERN NORTH DAKOTA  *****

CITY           SKY/WX    TMP DP  RH WIND       PRES   REMARKS
GRAND FORKS    NOT AVBL
GRAND FORKS AF MOCLDY    63  48  59 W7        29.68S
GRAND CITY NWS NOT AVBL
BUXTON           N/A     62  53  73 S8          N/A
DEVILS LAKE    NOT AVBL
FARGO          NOT AVBL
WAHPETON ARPT  SUNNY     57  41  54 SE6       29.78R
$$

 *****  WEATHER ACROSS CENTRAL AND WESTERN NORTH DAKOTA  *****

CITY           SKY/WX    TMP DP  RH WIND       PRES   REMARKS
JAMESTOWN      NOT AVBL
BISMARCK       NOT AVBL
MINOT          NOT AVBL
MINOT AFB      MOCLDY    58  46  63 NW16      29.84R
6HR MIN TEMP:  58; 6HR MAX TEMP:  66; 6HR PCP: TRACE;

GARRISON         N/A     61  45  55 N14       29.81R
6HR MIN TEMP:  51; 6HR MAX TEMP:  64;

WILLISTON      NOT AVBL
DICKINSON      NOT AVBL
HETTINGER      NOT AVBL
$$

 *****  OTHER OBSERVATIONS NORTHEAST NORTH DAKOTA  *****

CITY           SKY/WX    TMP DP  RH WIND       PRES   REMARKS
WALHALLA       FAIR      63  46  55 NW21G31   29.75R
LANGDON        FAIR      61  45  55 N18G24    29.76R
CAVALIER       FAIR      68  43  40 N24G30    29.70R
GRAFTON        FAIR      63  48  59 W7        29.69R
CANDO          FAIR      64  45  48 N17G24    29.79R
FORT TOTTEN      N/A     60  41  50 CALM      29.95S
ROLLA          FAIR      59  43  55 N22G29    29.83R
RUGBY          FAIR      59  46  63 N15       29.79R
 ***** THE ABOVE OBSERVATIONS ARE NON NWS ARE NOT QUALITY
        CONTROLLED AND MAY MIS-REPORT RAIN FOR SNOW...
$$

 *****  OTHER OBSERVATIONS SOUTHEAST NORTH DAKOTA *****

CITY           SKY/WX    TMP DP  RH WIND       PRES   REMARKS
COOPERSTOWN    NOT AVBL
VALLEY CITY    FAIR      54  52  94 S8        29.77S
OAKES            N/A    N/A N/A N/A MISG        N/A
GWINNER        FAIR      63  48  59 SW13      29.77S
SHEYENNE NWR     N/A     56  43  62 W5        29.95S
BUFFALO          N/A     59  45  59 SW10        N/A
WYNDMERE         N/A     64  48  55 SW3         N/A
 ***** THE ABOVE OBSERVATIONS ARE NON NWS ARE NOT QUALITY
       CONTROLLED AND MAY MIS-REPORT RAIN FOR SNOW...
$$

  *****  WEATHER ACROSS NORTHERN MINNESOTA  *****

CITY           SKY/WX    TMP DP  RH WIND       PRES   REMARKS
FLAG ISLAND    CLOUDY    63  45  51 SW15      29.61S
WARROAD        PTCLDY    66  50  55 SW12      29.65S
ROSEAU         CLOUDY    70  48  46 SW12G17   29.65S
HALLOCK        CLOUDY    63  45  51 S7        29.68R
THF RVR FALLS  NOT AVBL
HALSTAD        NOT AVBL
FOSSTON        PTCLDY    63  43  48 S12       29.75S
BAUDETTE       NOT AVBL
WASKISH        MOSUNNY   66  48  52 SW9       29.73R
CROOKSTON      MOCLDY    61  45  55 S8        29.72F
$$
  *****  WEATHER ACROSS CENTRAL AND WEST MINNESOTA  *****

CITY           SKY/WX    TMP DP  RH WIND       PRES   REMARKS
BEMIDJI        CLEAR     65  44  46 SW7       29.75S
PARK RAPIDS    NOT AVBL
WADENA         CLEAR     61  45  55 SW6       29.80S
DETROIT LAKES  CLEAR     63  45  51 S7        29.79F
MOORHEAD       CLEAR     57  45  62 SE9       29.76S
FERGUS FALLS   CLEAR     61  46  59 SE8       29.77S
ELBOW LAKE     FAIR      58  46  64 SE9       29.81S
6HR MIN TEMP:  55; 6HR MAX TEMP:  61;

MORRIS MN      CLEAR     57  45  62 SE9       29.80F
STAPLES        CLEAR     63  43  48 SW6       29.81S
WHEATON        CLEAR     66  48  52 S5        29.79S
$$
  *****  WEATHER ELSEWHERE ACROSS MINNESOTA  *****

CITY           SKY/WX    TMP DP  RH WIND       PRES   REMARKS
DULUTH         NOT AVBL
INTRNTL FALLS  NOT AVBL
ELY            SUNNY     63  41  45 SW5       29.75S
CLOQUET        SUNNY     66  39  37 W10G16    29.80S
BRAINERD       NOT AVBL
HIBBING        NOT AVBL
ALEXANDRIA     NOT AVBL
SAINT CLOUD    NOT AVBL
MINNEAPOLIS    NOT AVBL
$$

  *****  WEATHER ACROSS SOUTH DAKOTA  *****

CITY           SKY/WX    TMP DP  RH WIND       PRES   REMARKS
SIOUX FALLS    MOCLDY    57  46  67 S13       29.90S
BROOKINGS      NOT AVBL
WATERTOWN      NOT AVBL
HURON          CLEAR     60  50  69 S14       29.81S
6HR MIN TEMP:  59; 6HR MAX TEMP:  63;

SISSETON         N/A     67  47  48 SW20G26   29.75S
ABERDEEN       NOT AVBL
MITCHELL       NOT AVBL
PIERRE         NOT AVBL
MOBRIDGE       NOT AVBL
RAPID CITY     MOCLDY    51  40  65 CALM      29.87R
6HR MIN TEMP:  48; 6HR MAX TEMP:  58;

$$

  *****  SOME WEATHER IN NEARBY STATES *****

CITY           SKY/WX    TMP DP  RH WIND       PRES   REMARKS
GLASGOW MT     MOCLDY    52  42  69 N18G31    30.07R
6HR MIN TEMP:  52; 6HR MAX TEMP:  66;

GREAT FALLS MT CLOUDY    46  44  93 N10       30.22R
6HR MIN TEMP:  46; 6HR MAX TEMP:  53;

CHEYENNE WY    CLOUDY    44  37  76 W10       30.01S
6HR MIN TEMP:  44; 6HR MAX TEMP:  59;

SCOTTSBLUFF NE CLOUDY    54  44  69 E9        29.93S
6HR MIN TEMP:  54; 6HR MAX TEMP:  68;

OMAHA NE       NOT AVBL
DES MOINES IA  NOT AVBL
DAVENPORT IA   SUNNY     51  39  63 SW7       30.01R
6HR MIN TEMP:  46; 6HR MAX TEMP:  51;

CHICAGO IL     CLOUDY    52  43  71 SW3       29.99R
6HR MIN TEMP:  42; 6HR MAX TEMP:  52;

EAU CLAIRE WI  NOT AVBL
LA CROSSE WI   NOT AVBL
$$

  *****  SOME NATIONAL WEATHER *****

CITY           SKY/WX    TMP DP  RH WIND       PRES   REMARKS
LA GUARDIA NY  LGT RAIN  50  48  93 NE18      29.69S FOG
6HR MIN TEMP:  49; 6HR MAX TEMP:  53; 6HR PCP:  0.38;

RALEIGH NC     LGT RAIN  52  50  93 NW6       29.71S FOG
6HR MIN TEMP:  50; 6HR MAX TEMP:  51; 6HR PCP:  0.33;

ATLANTA GA     SUNNY     50  42  74 NW16      29.91R
6HR MIN TEMP:  46; 6HR MAX TEMP:  50;

NEW ORLEANS LA PTCLDY    65  48  54 NE9       30.02R
6HR MIN TEMP:  64; 6HR MAX TEMP:  69;

OKLAHOMA CITY  PTCLDY    52  46  80 S5        30.08R
6HR MIN TEMP:  49; 6HR MAX TEMP:  59;

ALBUQUERQUE NM PTCLDY    61  26  26 CALM      29.97F
6HR MIN TEMP:  60; 6HR MAX TEMP:  69;

SALT LAKE CITY CLOUDY    68  38  33 E10       29.78F
6HR MIN TEMP:  65; 6HR MAX TEMP:  73;

LOS ANGELES CA MOCLDY    58  54  86 CALM      29.83S
6HR MIN TEMP:  57; 6HR MAX TEMP:  61; 6HR PCP:  0.01;

BOISE ID       CLOUDY    56  50  80 CALM      29.84R
6HR MIN TEMP:  56; 6HR MAX TEMP:  62;

SEATTLE WA     PTCLDY    51  45  79 NW3       30.07R
6HR MIN TEMP:  50; 6HR MAX TEMP:  61;

$$

*** WEATHER ACROSS MANITOBA...SASKATCHEWAN AND ONTARIO ***
                ***ONTARIO***

CITY           SKY/WX    TMP DP  RH WIND       PRES   REMARKS
GERALDTON      CLOUDY    39  32  75 E5        29.75F
THUNDER BAY    PTSUNNY   43  36  75 NW9       29.79R
SIOUX LOOKOUT  PTSUNNY   59  45  58 S5        29.59F
TORONTO        MOSUNNY   52  39  62 N12       29.87R
BIG TROUT LK   CLOUDY    30  19  64 E10G17    29.75R WCI  21
PICKLE LAKE    PTSUNNY   48  37  66 SE7       29.60C1F1C2F2C3F3C4F4C5F5C6F6C7F7C8F8C9F9CaFaCbFbCcFcCdFdCe!



USA.gov is the U.S. government's official web portal to all federal, state and local government web resources and services.